Year,Month,Day,Hour,Minute,Value (Times are PST for temperature in C)
2009,08,03,00,00,15.30
2009,08,03,00,01,15.30
2009,08,03,00,02,15.30
2009,08,03,00,03,15.30
2009,08,03,00,04,15.30
2009,08,03,00,05,15.30
2009,08,03,00,06,15.30
2009,08,03,00,07,15.30
2009,08,03,00,08,15.30
2009,08,03,00,09,15.30
2009,08,03,00,10,15.30
2009,08,03,00,11,15.30
2009,08,03,00,12,15.30
2009,08,03,00,13,15.30
2009,08,03,00,14,15.30
2009,08,03,00,15,15.30
2009,08,03,00,16,15.40
2009,08,03,00,17,15.40
2009,08,03,00,18,15.40
2009,08,03,00,19,15.50
2009,08,03,00,20,15.50
2009,08,03,00,21,15.50
2009,08,03,00,22,15.50
2009,08,03,00,23,15.60
2009,08,03,00,24,15.60
2009,08,03,00,25,15.70
2009,08,03,00,26,15.70
2009,08,03,00,27,15.60
2009,08,03,00,28,15.60
2009,08,03,00,29,15.50
2009,08,03,00,30,15.50
2009,08,03,00,31,15.40
2009,08,03,00,32,15.30
2009,08,03,00,33,15.20
2009,08,03,00,34,15.10
2009,08,03,00,35,15.00
2009,08,03,00,36,14.90
2009,08,03,00,37,14.80
2009,08,03,00,38,14.60
2009,08,03,00,39,14.50
2009,08,03,00,40,14.40
2009,08,03,00,41,14.20
2009,08,03,00,42,14.00
2009,08,03,00,43,13.90
2009,08,03,00,44,13.90
2009,08,03,00,45,13.80
2009,08,03,00,46,13.70
2009,08,03,00,47,13.70
2009,08,03,00,48,13.70
2009,08,03,00,49,13.70
2009,08,03,00,50,13.70
2009,08,03,00,51,13.70
2009,08,03,00,52,13.70
2009,08,03,00,53,13.70
2009,08,03,00,54,13.70
2009,08,03,00,55,13.70
2009,08,03,00,56,13.70
2009,08,03,00,57,13.70
2009,08,03,00,58,13.70
2009,08,03,00,59,13.70
2009,08,03,01,00,13.70
2009,08,03,01,01,13.70
2009,08,03,01,02,13.70
2009,08,03,01,03,13.70
2009,08,03,01,04,13.70
2009,08,03,01,05,13.70
2009,08,03,01,06,13.70
2009,08,03,01,07,13.70
2009,08,03,01,08,13.70
2009,08,03,01,09,13.70
2009,08,03,01,10,13.60
2009,08,03,01,11,13.60
2009,08,03,01,12,13.50
2009,08,03,01,13,13.40
2009,08,03,01,14,13.30
2009,08,03,01,15,13.30
2009,08,03,01,16,13.20
2009,08,03,01,17,13.10
2009,08,03,01,18,13.10
2009,08,03,01,19,13.00
2009,08,03,01,20,12.90
2009,08,03,01,21,12.80
2009,08,03,01,22,12.80
2009,08,03,01,23,12.70
2009,08,03,01,24,12.70
2009,08,03,01,25,12.60
2009,08,03,01,26,12.50
2009,08,03,01,27,12.50
2009,08,03,01,28,12.40
2009,08,03,01,29,12.40
2009,08,03,01,30,12.40
2009,08,03,01,31,12.40
2009,08,03,01,32,12.30
2009,08,03,01,33,12.30
2009,08,03,01,34,12.30
2009,08,03,01,35,12.20
2009,08,03,01,36,12.20
2009,08,03,01,37,12.10
2009,08,03,01,38,12.00
2009,08,03,01,39,12.00
2009,08,03,01,40,12.00
2009,08,03,01,41,11.90
2009,08,03,01,42,11.80
2009,08,03,01,43,11.80
2009,08,03,01,44,11.80
2009,08,03,01,45,11.80
2009,08,03,01,46,11.70
2009,08,03,01,47,11.70
2009,08,03,01,48,11.70
2009,08,03,01,49,11.70
2009,08,03,01,50,11.70
2009,08,03,01,51,11.70
2009,08,03,01,52,11.60
2009,08,03,01,53,11.60
2009,08,03,01,54,11.60
2009,08,03,01,55,11.60
2009,08,03,01,56,11.70
2009,08,03,01,57,11.70
2009,08,03,01,58,11.70
2009,08,03,01,59,11.70
2009,08,03,02,00,11.70
2009,08,03,02,01,11.70
2009,08,03,02,02,11.70
2009,08,03,02,03,11.70
2009,08,03,02,04,11.70
2009,08,03,02,05,11.70
2009,08,03,02,06,11.70
2009,08,03,02,07,11.70
2009,08,03,02,08,11.80
2009,08,03,02,09,11.80
2009,08,03,02,10,11.80
2009,08,03,02,11,11.80
2009,08,03,02,12,11.90
2009,08,03,02,13,11.90
2009,08,03,02,14,11.90
2009,08,03,02,15,11.80
2009,08,03,02,16,11.80
2009,08,03,02,17,11.80
2009,08,03,02,18,11.80
2009,08,03,02,19,11.80
2009,08,03,02,20,11.80
2009,08,03,02,21,11.80
2009,08,03,02,22,11.80
2009,08,03,02,23,11.80
2009,08,03,02,24,11.80
2009,08,03,02,25,11.70
2009,08,03,02,26,11.70
2009,08,03,02,27,11.70
2009,08,03,02,28,11.70
2009,08,03,02,29,11.60
2009,08,03,02,30,11.60
2009,08,03,02,31,11.60
2009,08,03,02,32,11.60
2009,08,03,02,33,11.60
2009,08,03,02,34,11.60
2009,08,03,02,35,11.60
2009,08,03,02,36,11.60
2009,08,03,02,37,11.60
2009,08,03,02,38,11.60
2009,08,03,02,39,11.60
2009,08,03,02,40,11.60
2009,08,03,02,41,11.60
2009,08,03,02,42,11.60
2009,08,03,02,43,11.60
2009,08,03,02,44,11.60
2009,08,03,02,45,11.60
2009,08,03,02,46,11.60
2009,08,03,02,47,11.60
2009,08,03,02,48,11.60
2009,08,03,02,49,11.60
2009,08,03,02,50,11.60
2009,08,03,02,51,11.60
2009,08,03,02,52,11.60
2009,08,03,02,53,11.60
2009,08,03,02,54,11.60
2009,08,03,02,55,11.60
2009,08,03,02,56,11.60
2009,08,03,02,57,11.60
2009,08,03,02,58,11.60
2009,08,03,02,59,11.60
2009,08,03,03,00,11.60
2009,08,03,03,01,11.60
2009,08,03,03,02,11.70
2009,08,03,03,03,11.70
2009,08,03,03,04,11.70
2009,08,03,03,05,11.70
2009,08,03,03,06,11.70
2009,08,03,03,07,11.80
2009,08,03,03,08,11.80
2009,08,03,03,09,11.80
2009,08,03,03,10,11.80
2009,08,03,03,11,11.80
2009,08,03,03,12,11.80
2009,08,03,03,13,11.80
2009,08,03,03,14,11.80
2009,08,03,03,15,11.80
2009,08,03,03,16,11.80
2009,08,03,03,17,11.80
2009,08,03,03,18,11.80
2009,08,03,03,19,11.80
2009,08,03,03,20,11.80
2009,08,03,03,21,11.80
2009,08,03,03,22,11.80
2009,08,03,03,23,11.80
2009,08,03,03,24,11.80
2009,08,03,03,25,11.80
2009,08,03,03,26,11.80
2009,08,03,03,27,11.80
2009,08,03,03,28,11.80
2009,08,03,03,29,11.80
2009,08,03,03,30,11.80
2009,08,03,03,31,11.80
2009,08,03,03,32,11.80
2009,08,03,03,33,11.80
2009,08,03,03,34,11.80
2009,08,03,03,35,11.80
2009,08,03,03,36,11.80
2009,08,03,03,37,11.80
2009,08,03,03,38,11.80
2009,08,03,03,39,11.80
2009,08,03,03,40,11.80
2009,08,03,03,41,11.80
2009,08,03,03,42,11.80
2009,08,03,03,43,11.80
2009,08,03,03,44,11.80
2009,08,03,03,45,11.80
2009,08,03,03,46,11.80
2009,08,03,03,47,11.80
2009,08,03,03,48,11.80
2009,08,03,03,49,11.80
2009,08,03,03,50,11.80
2009,08,03,03,51,11.80
2009,08,03,03,52,11.80
2009,08,03,03,53,11.80
2009,08,03,03,54,11.80
2009,08,03,03,55,11.80
2009,08,03,03,56,11.80
2009,08,03,03,57,11.80
2009,08,03,03,58,11.80
2009,08,03,03,59,11.70
2009,08,03,04,00,11.70
2009,08,03,04,01,11.70
2009,08,03,04,02,11.70
2009,08,03,04,03,11.70
2009,08,03,04,04,11.70
2009,08,03,04,05,11.70
2009,08,03,04,06,11.70
2009,08,03,04,07,11.80
2009,08,03,04,08,11.70
2009,08,03,04,09,11.70
2009,08,03,04,10,11.70
2009,08,03,04,11,11.70
2009,08,03,04,12,11.70
2009,08,03,04,13,11.70
2009,08,03,04,14,11.70
2009,08,03,04,15,11.80
2009,08,03,04,16,11.80
2009,08,03,04,17,11.80
2009,08,03,04,18,11.80
2009,08,03,04,19,11.80
2009,08,03,04,20,11.80
2009,08,03,04,21,11.80
2009,08,03,04,22,11.80
2009,08,03,04,23,11.80
2009,08,03,04,24,11.80
2009,08,03,04,25,11.80
2009,08,03,04,26,11.90
2009,08,03,04,27,11.90
2009,08,03,04,28,11.90
2009,08,03,04,29,11.90
2009,08,03,04,30,12.00
2009,08,03,04,31,12.00
2009,08,03,04,32,12.00
2009,08,03,04,33,12.00
2009,08,03,04,34,12.00
2009,08,03,04,35,12.10
2009,08,03,04,36,12.10
2009,08,03,04,37,12.10
2009,08,03,04,38,12.20
2009,08,03,04,39,12.20
2009,08,03,04,40,12.20
2009,08,03,04,41,12.30
2009,08,03,04,42,12.30
2009,08,03,04,43,12.30
2009,08,03,04,44,12.30
2009,08,03,04,45,12.40
2009,08,03,04,46,12.40
2009,08,03,04,47,12.40
2009,08,03,04,48,12.50
2009,08,03,04,49,12.50
2009,08,03,04,50,12.50
2009,08,03,04,51,12.60
2009,08,03,04,52,12.60
2009,08,03,04,53,12.60
2009,08,03,04,54,12.70
2009,08,03,04,55,12.70
2009,08,03,04,56,12.80
2009,08,03,04,57,12.80
2009,08,03,04,58,12.80
2009,08,03,04,59,12.90
2009,08,03,05,00,12.90
2009,08,03,05,01,13.00
2009,08,03,05,02,13.00
2009,08,03,05,03,13.00
2009,08,03,05,04,13.10
2009,08,03,05,05,13.10
2009,08,03,05,06,13.10
2009,08,03,05,07,13.10
2009,08,03,05,08,13.10
2009,08,03,05,09,13.10
2009,08,03,05,10,13.10
2009,08,03,05,11,13.10
2009,08,03,05,12,13.10
2009,08,03,05,13,13.10
2009,08,03,05,14,13.10
2009,08,03,05,15,13.10
2009,08,03,05,16,13.10
2009,08,03,05,17,13.00
2009,08,03,05,18,13.00
2009,08,03,05,19,13.00
2009,08,03,05,20,13.00
2009,08,03,05,21,13.00
2009,08,03,05,22,13.00
2009,08,03,05,23,12.90
2009,08,03,05,24,12.90
2009,08,03,05,25,12.90
2009,08,03,05,26,12.90
2009,08,03,05,27,12.80
2009,08,03,05,28,12.80
2009,08,03,05,29,12.80
2009,08,03,05,30,12.80
2009,08,03,05,31,12.70
2009,08,03,05,32,12.60
2009,08,03,05,33,12.50
2009,08,03,05,34,12.40
2009,08,03,05,35,12.40
2009,08,03,05,36,12.30
2009,08,03,05,37,12.10
2009,08,03,05,38,12.10
2009,08,03,05,39,12.00
2009,08,03,05,40,11.90
2009,08,03,05,41,11.80
2009,08,03,05,42,11.80
2009,08,03,05,43,11.70
2009,08,03,05,44,11.70
2009,08,03,05,45,11.60
2009,08,03,05,46,11.60
2009,08,03,05,47,11.60
2009,08,03,05,48,11.60
2009,08,03,05,49,11.60
2009,08,03,05,50,11.50
2009,08,03,05,51,11.40
2009,08,03,05,52,11.40
2009,08,03,05,53,11.30
2009,08,03,05,54,11.30
2009,08,03,05,55,11.20
2009,08,03,05,56,11.10
2009,08,03,05,57,11.10
2009,08,03,05,58,11.10
2009,08,03,05,59,11.00
2009,08,03,06,00,10.90
2009,08,03,06,01,10.90
2009,08,03,06,02,10.90
2009,08,03,06,03,10.90
2009,08,03,06,04,10.90
2009,08,03,06,05,10.90
2009,08,03,06,06,10.90
2009,08,03,06,07,10.90
2009,08,03,06,08,10.90
2009,08,03,06,09,10.90
2009,08,03,06,10,10.90
2009,08,03,06,11,10.90
2009,08,03,06,12,10.90
2009,08,03,06,13,10.90
2009,08,03,06,14,10.90
2009,08,03,06,15,10.90
2009,08,03,06,16,10.80
2009,08,03,06,17,10.90
2009,08,03,06,18,10.90
2009,08,03,06,19,10.90
2009,08,03,06,20,10.90
2009,08,03,06,21,10.80
2009,08,03,06,22,10.80
2009,08,03,06,23,10.80
2009,08,03,06,24,10.80
2009,08,03,06,25,10.80
2009,08,03,06,26,10.80
2009,08,03,06,27,10.80
2009,08,03,06,28,10.70
2009,08,03,06,29,10.70
2009,08,03,06,30,10.70
2009,08,03,06,31,10.70
2009,08,03,06,32,10.70
2009,08,03,06,33,10.70
2009,08,03,06,34,10.70
2009,08,03,06,35,10.70
2009,08,03,06,36,10.70
2009,08,03,06,37,10.70
2009,08,03,06,38,10.80
2009,08,03,06,39,10.80
2009,08,03,06,40,10.80
2009,08,03,06,41,10.80
2009,08,03,06,42,10.80
2009,08,03,06,43,10.80
2009,08,03,06,44,10.80
2009,08,03,06,45,10.80
2009,08,03,06,46,10.80
2009,08,03,06,47,10.80
2009,08,03,06,48,10.80
2009,08,03,06,49,10.90
2009,08,03,06,50,10.90
2009,08,03,06,51,10.90
2009,08,03,06,52,10.90
2009,08,03,06,53,10.90
2009,08,03,06,54,10.90
2009,08,03,06,55,10.90
2009,08,03,06,56,10.90
2009,08,03,06,57,10.90
2009,08,03,06,58,10.90
2009,08,03,06,59,11.00
2009,08,03,07,00,11.10
2009,08,03,07,01,11.10
2009,08,03,07,02,11.10
2009,08,03,07,03,11.20
2009,08,03,07,04,11.20
2009,08,03,07,05,11.10
2009,08,03,07,06,11.20
2009,08,03,07,07,11.20
2009,08,03,07,08,11.20
2009,08,03,07,09,11.20
2009,08,03,07,10,11.30
2009,08,03,07,11,11.30
2009,08,03,07,12,11.40
2009,08,03,07,13,11.40
2009,08,03,07,14,11.50
2009,08,03,07,15,11.60
2009,08,03,07,16,11.60
2009,08,03,07,17,11.60
2009,08,03,07,18,11.60
2009,08,03,07,19,11.70
2009,08,03,07,20,11.70
2009,08,03,07,21,11.80
2009,08,03,07,22,11.80
2009,08,03,07,23,11.80
2009,08,03,07,24,11.90
2009,08,03,07,25,11.90
2009,08,03,07,26,12.00
2009,08,03,07,27,12.10
2009,08,03,07,28,12.20
2009,08,03,07,29,12.20
2009,08,03,07,30,12.30
2009,08,03,07,31,12.30
2009,08,03,07,32,12.30
2009,08,03,07,33,12.30
2009,08,03,07,34,12.30
2009,08,03,07,35,12.30
2009,08,03,07,36,12.30
2009,08,03,07,37,12.30
2009,08,03,07,38,12.30
2009,08,03,07,39,12.30
2009,08,03,07,40,12.30
2009,08,03,07,41,12.30
2009,08,03,07,42,12.30
2009,08,03,07,43,12.30
2009,08,03,07,44,12.30
2009,08,03,07,45,12.30
2009,08,03,07,46,12.30
2009,08,03,07,47,12.20
2009,08,03,07,48,12.10
2009,08,03,07,49,12.10
2009,08,03,07,50,12.10
2009,08,03,07,51,12.10
2009,08,03,07,52,12.10
2009,08,03,07,53,12.20
2009,08,03,07,54,12.20
2009,08,03,07,55,12.30
2009,08,03,07,56,12.40
2009,08,03,07,57,12.50
2009,08,03,07,58,12.50
2009,08,03,07,59,12.60
2009,08,03,08,00,12.60
2009,08,03,08,01,12.70
2009,08,03,08,02,12.80
2009,08,03,08,03,12.90
2009,08,03,08,04,13.10
2009,08,03,08,05,13.10
2009,08,03,08,06,13.10
2009,08,03,08,07,13.10
2009,08,03,08,08,13.00
2009,08,03,08,09,13.00
2009,08,03,08,10,13.10
2009,08,03,08,11,13.10
2009,08,03,08,12,13.20
2009,08,03,08,13,13.20
2009,08,03,08,14,13.30
2009,08,03,08,15,13.30
2009,08,03,08,16,13.30
2009,08,03,08,17,13.30
2009,08,03,08,18,13.30
2009,08,03,08,19,13.30
2009,08,03,08,20,13.30
2009,08,03,08,21,13.30
2009,08,03,08,22,13.30
2009,08,03,08,23,13.30
2009,08,03,08,24,13.30
2009,08,03,08,25,13.30
2009,08,03,08,26,13.50
2009,08,03,08,27,13.50
2009,08,03,08,28,13.60
2009,08,03,08,29,13.70
2009,08,03,08,30,13.80
2009,08,03,08,31,13.90
2009,08,03,08,32,14.00
2009,08,03,08,33,14.10
2009,08,03,08,34,14.10
2009,08,03,08,35,14.20
2009,08,03,08,36,14.20
2009,08,03,08,37,14.20
2009,08,03,08,38,14.30
2009,08,03,08,39,14.40
2009,08,03,08,40,14.40
2009,08,03,08,41,14.40
2009,08,03,08,42,14.50
2009,08,03,08,43,14.50
2009,08,03,08,44,14.60
2009,08,03,08,45,14.70
2009,08,03,08,46,14.80
2009,08,03,08,47,14.80
2009,08,03,08,48,14.70
2009,08,03,08,49,14.40
2009,08,03,08,50,14.20
2009,08,03,08,51,13.80
2009,08,03,08,52,13.40
2009,08,03,08,53,13.20
2009,08,03,08,54,12.90
2009,08,03,08,55,12.70
2009,08,03,08,56,12.50
2009,08,03,08,57,12.40
2009,08,03,08,58,12.30
2009,08,03,08,59,12.30
2009,08,03,09,00,12.30
2009,08,03,09,01,12.30
2009,08,03,09,02,12.20
2009,08,03,09,03,12.10
2009,08,03,09,04,12.10
2009,08,03,09,05,12.10
2009,08,03,09,06,12.10
2009,08,03,09,07,12.20
2009,08,03,09,08,12.20
2009,08,03,09,09,12.30
2009,08,03,09,10,12.30
2009,08,03,09,11,12.30
2009,08,03,09,12,12.30
2009,08,03,09,13,12.20
2009,08,03,09,14,12.20
2009,08,03,09,15,12.20
2009,08,03,09,16,12.30
2009,08,03,09,17,12.30
2009,08,03,09,18,12.40
2009,08,03,09,19,12.50
2009,08,03,09,20,12.60
2009,08,03,09,21,12.70
2009,08,03,09,22,12.80
2009,08,03,09,23,12.80
2009,08,03,09,24,12.90
2009,08,03,09,25,13.00
2009,08,03,09,26,13.10
2009,08,03,09,27,13.30
2009,08,03,09,28,13.30
2009,08,03,09,29,13.40
2009,08,03,09,30,13.60
2009,08,03,09,31,13.60
2009,08,03,09,32,13.60
2009,08,03,09,33,13.60
2009,08,03,09,34,13.70
2009,08,03,09,35,13.70
2009,08,03,09,36,13.80
2009,08,03,09,37,13.90
2009,08,03,09,38,14.00
2009,08,03,09,39,14.10
2009,08,03,09,40,14.20
2009,08,03,09,41,14.20
2009,08,03,09,42,14.30
2009,08,03,09,43,14.40
2009,08,03,09,44,14.50
2009,08,03,09,45,14.60
2009,08,03,09,46,14.70
2009,08,03,09,47,14.80
2009,08,03,09,48,15.00
2009,08,03,09,49,15.10
2009,08,03,09,50,15.20
2009,08,03,09,51,15.20
2009,08,03,09,52,15.20
2009,08,03,09,53,15.20
2009,08,03,09,54,15.30
2009,08,03,09,55,15.30
2009,08,03,09,56,15.40
2009,08,03,09,57,15.50
2009,08,03,09,58,15.70
2009,08,03,09,59,15.70
2009,08,03,10,00,15.70
2009,08,03,10,01,15.70
2009,08,03,10,02,15.80
2009,08,03,10,03,15.90
2009,08,03,10,04,16.10
2009,08,03,10,05,16.10
2009,08,03,10,06,16.20
2009,08,03,10,07,16.30
2009,08,03,10,08,16.40
2009,08,03,10,09,16.50
2009,08,03,10,10,16.60
2009,08,03,10,11,16.70
2009,08,03,10,12,16.70
2009,08,03,10,13,16.70
2009,08,03,10,14,16.70
2009,08,03,10,15,16.70
2009,08,03,10,16,16.70
2009,08,03,10,17,16.70
2009,08,03,10,18,16.80
2009,08,03,10,19,16.80
2009,08,03,10,20,16.90
2009,08,03,10,21,17.00
2009,08,03,10,22,17.20
2009,08,03,10,23,17.30
2009,08,03,10,24,17.30
2009,08,03,10,25,17.30
2009,08,03,10,26,17.30
2009,08,03,10,27,17.10
2009,08,03,10,28,16.90
2009,08,03,10,29,16.80
2009,08,03,10,30,16.70
2009,08,03,10,31,16.70
2009,08,03,10,32,16.60
2009,08,03,10,33,16.70
2009,08,03,10,34,16.70
2009,08,03,10,35,16.70
2009,08,03,10,36,16.70
2009,08,03,10,37,16.70
2009,08,03,10,38,16.70
2009,08,03,10,39,16.60
2009,08,03,10,40,16.50
2009,08,03,10,41,16.30
2009,08,03,10,42,16.30
2009,08,03,10,43,16.10
2009,08,03,10,44,15.90
2009,08,03,10,45,15.70
2009,08,03,10,46,15.70
2009,08,03,10,47,15.70
2009,08,03,10,48,15.70
2009,08,03,10,49,15.80
2009,08,03,10,50,15.80
2009,08,03,10,51,15.80
2009,08,03,10,52,15.80
2009,08,03,10,53,15.80
2009,08,03,10,54,15.80
2009,08,03,10,55,15.80
2009,08,03,10,56,15.70
2009,08,03,10,57,15.60
2009,08,03,10,58,15.70
2009,08,03,10,59,15.70
2009,08,03,11,00,15.60
2009,08,03,11,01,15.70
2009,08,03,11,02,15.80
2009,08,03,11,03,15.80
2009,08,03,11,04,15.80
2009,08,03,11,05,15.80
2009,08,03,11,06,15.80
2009,08,03,11,07,15.90
2009,08,03,11,08,16.00
2009,08,03,11,09,16.20
2009,08,03,11,10,16.20
2009,08,03,11,11,16.40
2009,08,03,11,12,16.40
2009,08,03,11,13,16.40
2009,08,03,11,14,16.30
2009,08,03,11,15,16.30
2009,08,03,11,16,16.40
2009,08,03,11,17,16.40
2009,08,03,11,18,16.40
2009,08,03,11,19,16.40
2009,08,03,11,20,16.60
2009,08,03,11,21,16.70
2009,08,03,11,22,16.70
2009,08,03,11,23,16.70
2009,08,03,11,24,16.70
2009,08,03,11,25,16.80
2009,08,03,11,26,16.80
2009,08,03,11,27,16.90
2009,08,03,11,28,16.90
2009,08,03,11,29,17.00
2009,08,03,11,30,17.10
2009,08,03,11,31,17.10
2009,08,03,11,32,17.10
2009,08,03,11,33,17.10
2009,08,03,11,34,17.00
2009,08,03,11,35,16.90
2009,08,03,11,36,16.90
2009,08,03,11,37,16.70
2009,08,03,11,38,16.60
2009,08,03,11,39,16.60
2009,08,03,11,40,16.60
2009,08,03,11,41,16.60
2009,08,03,11,42,16.70
2009,08,03,11,43,16.80
2009,08,03,11,44,16.80
2009,08,03,11,45,16.70
2009,08,03,11,46,16.60
2009,08,03,11,47,16.60
2009,08,03,11,48,16.60
2009,08,03,11,49,16.60
2009,08,03,11,50,16.60
2009,08,03,11,51,16.70
2009,08,03,11,52,16.60
2009,08,03,11,53,16.60
2009,08,03,11,54,16.70
2009,08,03,11,55,16.70
2009,08,03,11,56,16.60
2009,08,03,11,57,16.60
2009,08,03,11,58,16.60
2009,08,03,11,59,16.60
2009,08,03,12,00,16.50
2009,08,03,12,01,16.30
2009,08,03,12,02,16.20
2009,08,03,12,03,16.10
2009,08,03,12,04,16.10
2009,08,03,12,05,16.10
2009,08,03,12,06,16.10
2009,08,03,12,07,16.10
2009,08,03,12,08,16.10
2009,08,03,12,09,16.10
2009,08,03,12,10,16.00
2009,08,03,12,11,15.90
2009,08,03,12,12,16.00
2009,08,03,12,13,16.10
2009,08,03,12,14,16.20
2009,08,03,12,15,16.30
2009,08,03,12,16,16.50
2009,08,03,12,17,16.40
2009,08,03,12,18,16.40
2009,08,03,12,19,16.40
2009,08,03,12,20,16.30
2009,08,03,12,21,16.20
2009,08,03,12,22,16.10
2009,08,03,12,23,16.10
2009,08,03,12,24,16.10
2009,08,03,12,25,16.10
2009,08,03,12,26,16.10
2009,08,03,12,27,16.20
2009,08,03,12,28,16.20
2009,08,03,12,29,16.30
2009,08,03,12,30,16.20
2009,08,03,12,31,16.20
2009,08,03,12,32,16.20
2009,08,03,12,33,16.20
2009,08,03,12,34,16.20
2009,08,03,12,35,16.00
2009,08,03,12,36,15.80
2009,08,03,12,37,15.60
2009,08,03,12,38,15.60
2009,08,03,12,39,15.40
2009,08,03,12,40,15.30
2009,08,03,12,41,15.30
2009,08,03,12,42,15.30
2009,08,03,12,43,15.10
2009,08,03,12,44,15.00
2009,08,03,12,45,15.00
2009,08,03,12,46,15.10
2009,08,03,12,47,15.20
2009,08,03,12,48,15.30
2009,08,03,12,49,15.30
2009,08,03,12,50,15.40
2009,08,03,12,51,15.60
2009,08,03,12,52,15.80
2009,08,03,12,53,15.90
2009,08,03,12,54,16.00
2009,08,03,12,55,16.10
2009,08,03,12,56,16.10
2009,08,03,12,57,16.10
2009,08,03,12,58,16.10
2009,08,03,12,59,16.10
2009,08,03,13,00,16.10
2009,08,03,13,01,16.10
2009,08,03,13,02,16.10
2009,08,03,13,03,16.20
2009,08,03,13,04,16.10
2009,08,03,13,05,16.10
2009,08,03,13,06,16.10
2009,08,03,13,07,16.20
2009,08,03,13,08,16.30
2009,08,03,13,09,16.30
2009,08,03,13,10,16.30
2009,08,03,13,11,16.40
2009,08,03,13,12,16.40
2009,08,03,13,13,16.40
2009,08,03,13,14,16.50
2009,08,03,13,15,16.60
2009,08,03,13,16,16.60
2009,08,03,13,17,16.70
2009,08,03,13,18,16.70
2009,08,03,13,19,16.70
2009,08,03,13,20,16.70
2009,08,03,13,21,16.70
2009,08,03,13,22,16.70
2009,08,03,13,23,16.90
2009,08,03,13,24,17.00
2009,08,03,13,25,17.10
2009,08,03,13,26,17.20
2009,08,03,13,27,17.30
2009,08,03,13,28,17.40
2009,08,03,13,29,17.40
2009,08,03,13,30,17.40
2009,08,03,13,31,17.50
2009,08,03,13,32,17.60
2009,08,03,13,33,17.60
2009,08,03,13,34,17.70
2009,08,03,13,35,17.70
2009,08,03,13,36,17.80
2009,08,03,13,37,17.90
2009,08,03,13,38,17.90
2009,08,03,13,39,17.90
2009,08,03,13,40,18.00
2009,08,03,13,41,18.10
2009,08,03,13,42,18.00
2009,08,03,13,43,17.90
2009,08,03,13,44,17.90
2009,08,03,13,45,17.90
2009,08,03,13,46,17.90
2009,08,03,13,47,17.90
2009,08,03,13,48,18.00
2009,08,03,13,49,18.10
2009,08,03,13,50,18.30
2009,08,03,13,51,18.40
2009,08,03,13,52,18.50
2009,08,03,13,53,18.50
2009,08,03,13,54,18.50
2009,08,03,13,55,18.50
2009,08,03,13,56,18.60
2009,08,03,13,57,18.70
2009,08,03,13,58,18.90
2009,08,03,13,59,18.90
2009,08,03,14,00,19.10
2009,08,03,14,01,19.30
2009,08,03,14,02,19.40
2009,08,03,14,03,19.60
2009,08,03,14,04,19.70
2009,08,03,14,05,19.90
2009,08,03,14,06,20.00
2009,08,03,14,07,20.20
2009,08,03,14,08,20.30
2009,08,03,14,09,20.30
2009,08,03,14,10,20.20
2009,08,03,14,11,20.20
2009,08,03,14,12,20.20
2009,08,03,14,13,20.10
2009,08,03,14,14,20.00
2009,08,03,14,15,19.90
2009,08,03,14,16,19.80
2009,08,03,14,17,19.80
2009,08,03,14,18,19.70
2009,08,03,14,19,19.60
2009,08,03,14,20,19.50
2009,08,03,14,21,19.50
2009,08,03,14,22,19.50
2009,08,03,14,23,19.60
2009,08,03,14,24,19.50
2009,08,03,14,25,19.40
2009,08,03,14,26,19.40
2009,08,03,14,27,19.40
2009,08,03,14,28,19.40
2009,08,03,14,29,19.30
2009,08,03,14,30,19.20
2009,08,03,14,31,19.30
2009,08,03,14,32,19.30
2009,08,03,14,33,19.30
2009,08,03,14,34,19.30
2009,08,03,14,35,19.30
2009,08,03,14,36,19.10
2009,08,03,14,37,19.00
2009,08,03,14,38,18.90
2009,08,03,14,39,18.90
2009,08,03,14,40,19.00
2009,08,03,14,41,19.10
2009,08,03,14,42,19.10
2009,08,03,14,43,19.10
2009,08,03,14,44,19.10
2009,08,03,14,45,19.00
2009,08,03,14,46,18.90
2009,08,03,14,47,18.80
2009,08,03,14,48,18.70
2009,08,03,14,49,18.70
2009,08,03,14,50,18.60
2009,08,03,14,51,18.60
2009,08,03,14,52,18.60
2009,08,03,14,53,18.70
2009,08,03,14,54,18.80
2009,08,03,14,55,18.90
2009,08,03,14,56,19.00
2009,08,03,14,57,19.10
2009,08,03,14,58,19.10
2009,08,03,14,59,19.20
2009,08,03,15,00,19.20
2009,08,03,15,01,19.40
2009,08,03,15,02,19.40
2009,08,03,15,03,19.30
2009,08,03,15,04,19.30
2009,08,03,15,05,19.30
2009,08,03,15,06,19.30
2009,08,03,15,07,19.40
2009,08,03,15,08,19.40
2009,08,03,15,09,19.50
2009,08,03,15,10,19.60
2009,08,03,15,11,19.70
2009,08,03,15,12,19.70
2009,08,03,15,13,19.70
2009,08,03,15,14,19.80
2009,08,03,15,15,19.80
2009,08,03,15,16,19.80
2009,08,03,15,17,19.80
2009,08,03,15,18,19.90
2009,08,03,15,19,19.80
2009,08,03,15,20,19.90
2009,08,03,15,21,19.90
2009,08,03,15,22,19.90
2009,08,03,15,23,20.00
2009,08,03,15,24,20.10
2009,08,03,15,25,20.30
2009,08,03,15,26,20.40
2009,08,03,15,27,20.40
2009,08,03,15,28,20.30
2009,08,03,15,29,20.20
2009,08,03,15,30,20.10
2009,08,03,15,31,20.10
2009,08,03,15,32,20.20
2009,08,03,15,33,20.20
2009,08,03,15,34,20.20
2009,08,03,15,35,20.20
2009,08,03,15,36,20.20
2009,08,03,15,37,20.30
2009,08,03,15,38,20.30
2009,08,03,15,39,20.50
2009,08,03,15,40,20.70
2009,08,03,15,41,20.80
2009,08,03,15,42,20.90
2009,08,03,15,43,20.90
2009,08,03,15,44,21.00
2009,08,03,15,45,21.00
2009,08,03,15,46,21.00
2009,08,03,15,47,20.90
2009,08,03,15,48,20.80
2009,08,03,15,49,20.80
2009,08,03,15,50,20.90
2009,08,03,15,51,20.90
2009,08,03,15,52,21.00
2009,08,03,15,53,21.00
2009,08,03,15,54,21.00
2009,08,03,15,55,21.00
2009,08,03,15,56,20.90
2009,08,03,15,57,20.80
2009,08,03,15,58,20.80
2009,08,03,15,59,20.90
2009,08,03,16,00,20.80
2009,08,03,16,01,20.80
2009,08,03,16,02,20.80
2009,08,03,16,03,20.80
2009,08,03,16,04,20.80
2009,08,03,16,05,20.80
2009,08,03,16,06,20.80
2009,08,03,16,07,20.80
2009,08,03,16,08,20.70
2009,08,03,16,09,20.70
2009,08,03,16,10,20.80
2009,08,03,16,11,20.80
2009,08,03,16,12,20.90
2009,08,03,16,13,21.00
2009,08,03,16,14,21.00
2009,08,03,16,15,21.20
2009,08,03,16,16,21.20
2009,08,03,16,17,21.20
2009,08,03,16,18,21.30
2009,08,03,16,19,21.30
2009,08,03,16,20,21.20
2009,08,03,16,21,21.10
2009,08,03,16,22,21.10
2009,08,03,16,23,21.20
2009,08,03,16,24,21.30
2009,08,03,16,25,21.30
2009,08,03,16,26,21.30
2009,08,03,16,27,21.40
2009,08,03,16,28,21.40
2009,08,03,16,29,21.40
2009,08,03,16,30,21.40
2009,08,03,16,31,21.30
2009,08,03,16,32,21.40
2009,08,03,16,33,21.40
2009,08,03,16,34,21.60
2009,08,03,16,35,21.60
2009,08,03,16,36,21.60
2009,08,03,16,37,21.50
2009,08,03,16,38,21.40
2009,08,03,16,39,21.30
2009,08,03,16,40,21.30
2009,08,03,16,41,21.30
2009,08,03,16,42,21.30
2009,08,03,16,43,21.40
2009,08,03,16,44,21.50
2009,08,03,16,45,21.70
2009,08,03,16,46,21.80
2009,08,03,16,47,21.80
2009,08,03,16,48,21.80
2009,08,03,16,49,21.90
2009,08,03,16,50,21.90
2009,08,03,16,51,21.90
2009,08,03,16,52,21.80
2009,08,03,16,53,21.70
2009,08,03,16,54,21.60
2009,08,03,16,55,21.60
2009,08,03,16,56,21.50
2009,08,03,16,57,21.40
2009,08,03,16,58,21.40
2009,08,03,16,59,21.30
2009,08,03,17,00,21.40
2009,08,03,17,01,21.40
2009,08,03,17,02,21.60
2009,08,03,17,03,21.60
2009,08,03,17,04,21.60
2009,08,03,17,05,21.60
2009,08,03,17,06,21.60
2009,08,03,17,07,21.60
2009,08,03,17,08,21.70
2009,08,03,17,09,21.70
2009,08,03,17,10,21.70
2009,08,03,17,11,21.70
2009,08,03,17,12,21.70
2009,08,03,17,13,21.70
2009,08,03,17,14,21.70
2009,08,03,17,15,21.80
2009,08,03,17,16,21.80
2009,08,03,17,17,21.90
2009,08,03,17,18,21.90
2009,08,03,17,19,22.00